Location: T�chigga el Be�da
(16.4766°N, 9.3887°W)
Time: 17:50:16
(UTC+00:00)

Hubble Space Telescope - Pass Details

Date: 27 February 2020
Orbit: 536 x 540 km, 28.5° (Epoch: 02 April)

Event Time Altitude Azimuth Distance (km) Brightness Sun altitude
Rises 19:17:59 0° 305° (NW) 2,671 5.2 -8.9°
Reaches altitude 10° 19:20:51 10° 326° (NW) 1,781 3.8 -9.6°
Maximum altitude 19:23:40 18° 9° (N) 1,368 2.7 -10.3°
Enters shadow 19:26:20 11° 51° (NE) 1,743 2.9 -10.9°
